When you browse on this site, cookies collect data to enhance your experience and personalize the content and advertising you see.
Visit our Privacy Policy to learn more. By continuing to use the site, you agree to this use of cookies and data.
  • In Schweiz
  • Länderverzeichnis
  • Für 7 Tage
  • Wassertemperatur
  • Satellitenkarten
  • Wetterkarte
  • Widgets
  • user-avatar
    Anmelden

    Stündliche Wetter Herāt

    Heute, 25 April, Donnerstag

    Zeit Temperatur Niederschläge Wind Luftdruck Luftfeuchtigkeit
    00:00 +6°C° 0 mm 7 m/S 683 mmHg 59%
    01:00 +5°C° 0 mm 6 m/S 683 mmHg 59%
    02:00 +5°C° 0 mm 6 m/S 683 mmHg 60%
    03:00 +5°C° 0 mm 6 m/S 683 mmHg 62%
    04:00 +5°C° 0 mm 6 m/S 682 mmHg 64%
    05:00 +5°C° 0 mm 6 m/S 683 mmHg 62%
    06:00 +5°C° 0 mm 6 m/S 683 mmHg 59%
    07:00 +7°C° 0 mm 6 m/S 683 mmHg 57%
    08:00 +9°C° 0 mm 5 m/S 683 mmHg 51%
    09:00 +10°C° 0 mm 5 m/S 684 mmHg 45%
    10:00 +13°C° 0 mm 5 m/S 684 mmHg 39%
    11:00 +14°C° 0 mm 5 m/S 684 mmHg 37%
    12:00 +15°C° 0 mm 5 m/S 684 mmHg 35%
    13:00 +16°C° 0 mm 5 m/S 684 mmHg 33%
    14:00 +16°C° 0 mm 5 m/S 683 mmHg 33%
    15:00 +16°C° 0 mm 5 m/S 683 mmHg 34%
    16:00 +16°C° 0 mm 5 m/S 683 mmHg 35%
    17:00 +15°C° 0 mm 6 m/S 683 mmHg 41%
    18:00 +14°C° 0 mm 6 m/S 683 mmHg 46%
    19:00 +13°C° 0 mm 6 m/S 683 mmHg 51%
    20:00 +11°C° 0 mm 6 m/S 683 mmHg 52%
    21:00 +11°C° 0 mm 6 m/S 683 mmHg 53%
    22:00 +10°C° 0 mm 6 m/S 683 mmHg 54%
    23:00 +10°C° 0 mm 6 m/S 683 mmHg 55%

    Morgen, 26 April, Freitag

    Zeit Temperatur Niederschläge Wind Luftdruck Luftfeuchtigkeit
    00:00 +9°C° 0 mm 5 m/S 683 mmHg 55%
    01:00 +9°C° 0 mm 5 m/S 683 mmHg 55%
    02:00 +9°C° 0 mm 5 m/S 682 mmHg 55%
    03:00 +8°C° 0 mm 5 m/S 682 mmHg 54%
    04:00 +8°C° 0 mm 4 m/S 682 mmHg 54%
    05:00 +8°C° 0 mm 5 m/S 682 mmHg 51%
    06:00 +9°C° 0 mm 5 m/S 683 mmHg 47%
    07:00 +10°C° 0 mm 6 m/S 683 mmHg 43%
    08:00 +11°C° 0 mm 6 m/S 683 mmHg 38%
    09:00 +14°C° 0 mm 6 m/S 683 mmHg 33%
    10:00 +16°C° 0 mm 6 m/S 684 mmHg 29%
    11:00 +16°C° 0 mm 6 m/S 683 mmHg 27%
    12:00 +17°C° 0 mm 6 m/S 683 mmHg 26%
    13:00 +19°C° 0 mm 6 m/S 683 mmHg 24%
    14:00 +19°C° 0 mm 6 m/S 683 mmHg 26%
    15:00 +19°C° 0 mm 6 m/S 682 mmHg 27%
    16:00 +18°C° 0 mm 7 m/S 682 mmHg 29%
    17:00 +17°C° 0 mm 7 m/S 682 mmHg 33%
    18:00 +16°C° 0 mm 7 m/S 682 mmHg 37%
    19:00 +14°C° 0 mm 6 m/S 682 mmHg 41%
    20:00 +14°C° 0 mm 6 m/S 682 mmHg 41%
    21:00 +13°C° 0 mm 6 m/S 683 mmHg 42%
    22:00 +13°C° 0 mm 5 m/S 683 mmHg 42%
    23:00 +12°C° 0 mm 5 m/S 683 mmHg 43%

    übermorgen, 27 April, Samstag

    Zeit Temperatur Niederschläge Wind Luftdruck Luftfeuchtigkeit
    00:00 +12°C° 0 mm 4 m/S 682 mmHg 43%
    01:00 +11°C° 0 mm 4 m/S 682 mmHg 43%
    02:00 +11°C° 0 mm 3 m/S 682 mmHg 43%
    03:00 +10°C° 0 mm 3 m/S 682 mmHg 44%
    04:00 +10°C° 0 mm 3 m/S 682 mmHg 44%
    05:00 +11°C° 0 mm 3 m/S 683 mmHg 42%
    06:00 +12°C° 0 mm 3 m/S 683 mmHg 39%
    07:00 +12°C° 0 mm 3 m/S 683 mmHg 37%
    08:00 +14°C° 0 mm 4 m/S 684 mmHg 33%
    09:00 +17°C° 0 mm 4 m/S 684 mmHg 30%
    10:00 +18°C° 0 mm 4 m/S 684 mmHg 27%
    11:00 +19°C° 0 mm 4 m/S 684 mmHg 26%
    12:00 +20°C° 0 mm 4 m/S 684 mmHg 24%
    13:00 +21°C° 0 mm 4 m/S 683 mmHg 23%
    14:00 +21°C° 0 mm 4 m/S 683 mmHg 24%
    15:00 +21°C° 0 mm 5 m/S 683 mmHg 25%
    16:00 +21°C° 0 mm 5 m/S 682 mmHg 26%
    17:00 +20°C° 0 mm 5 m/S 682 mmHg 30%
    18:00 +19°C° 0 mm 5 m/S 682 mmHg 34%
    19:00 +16°C° 0 mm 5 m/S 682 mmHg 38%
    20:00 +17°C° 0 mm 4 m/S 683 mmHg 40%
    21:00 +15°C° 0 mm 4 m/S 683 mmHg 43%
    22:00 +14°C° 0 mm 4 m/S 683 mmHg 45%
    23:00 +14°C° 0 mm 3 m/S 682 mmHg 46%

    28 April, Sonntag

    Zeit Temperatur Niederschläge Wind Luftdruck Luftfeuchtigkeit
    00:00 +13°C° 0 mm 3 m/S 682 mmHg 47%
    01:00 +13°C° 0 mm 3 m/S 682 mmHg 48%
    02:00 +12°C° 0 mm 3 m/S 681 mmHg 48%
    03:00 +13°C° 0 mm 2 m/S 681 mmHg 48%
    04:00 +13°C° 0 mm 2 m/S 681 mmHg 48%
    05:00 +13°C° 0 mm 2 m/S 681 mmHg 44%
    06:00 +14°C° 0 mm 2 m/S 682 mmHg 41%
    07:00 +15°C° 0 mm 2 m/S 682 mmHg 38%
    08:00 +17°C° 0 mm 2 m/S 682 mmHg 33%
    09:00 +18°C° 0 mm 2 m/S 682 mmHg 28%
    10:00 +20°C° 0 mm 2 m/S 683 mmHg 23%
    11:00 +21°C° 0 mm 2 m/S 682 mmHg 22%
    12:00 +23°C° 0 mm 2 m/S 682 mmHg 20%
    13:00 +24°C° 0 mm 2 m/S 681 mmHg 18%
    14:00 +24°C° 0 mm 2 m/S 681 mmHg 18%
    15:00 +25°C° 0 mm 2 m/S 681 mmHg 18%
    16:00 +25°C° 0 mm 2 m/S 680 mmHg 19%
    17:00 +24°C° 0 mm 2 m/S 680 mmHg 23%
    18:00 +21°C° 0 mm 3 m/S 680 mmHg 27%
    19:00 +20°C° 0 mm 3 m/S 680 mmHg 31%
    20:00 +19°C° 0 mm 3 m/S 680 mmHg 34%
    21:00 +19°C° 0 mm 2 m/S 680 mmHg 36%
    22:00 +18°C° 0 mm 2 m/S 680 mmHg 39%
    23:00 +18°C° 0 mm 2 m/S 679 mmHg 38%

    29 April, Montag

    Zeit Temperatur Niederschläge Wind Luftdruck Luftfeuchtigkeit
    00:00 +17°C° 0 mm 2 m/S 679 mmHg 38%
    01:00 +17°C° 0 mm 2 m/S 678 mmHg 37%
    02:00 +17°C° 0 mm 2 m/S 678 mmHg 36%
    03:00 +17°C° 0 mm 2 m/S 678 mmHg 35%
    04:00 +17°C° 0 mm 2 m/S 677 mmHg 34%
    05:00 +17°C° 0 mm 2 m/S 678 mmHg 33%
    06:00 +18°C° 0 mm 2 m/S 678 mmHg 32%
    07:00 +19°C° 0 mm 2 m/S 679 mmHg 31%
    08:00 +20°C° 0 mm 1 m/S 679 mmHg 30%
    09:00 +20°C° 0 mm 1 m/S 679 mmHg 29%
    10:00 +21°C° 0 mm 1 m/S 679 mmHg 29%
    11:00 +20°C° 0 mm 2 m/S 679 mmHg 29%
    12:00 +20°C° 0 mm 2 m/S 679 mmHg 30%
    13:00 +21°C° 0 mm 2 m/S 678 mmHg 30%
    14:00 +21°C° 0 mm 2 m/S 678 mmHg 30%
    15:00 +22°C° 0 mm 1 m/S 678 mmHg 31%
    16:00 +23°C° 0 mm 1 m/S 678 mmHg 31%
    17:00 +22°C° 0 mm 1 m/S 678 mmHg 35%
    18:00 +20°C° 0 mm 2 m/S 678 mmHg 39%
    19:00 +20°C° 0 mm 3 m/S 678 mmHg 43%
    20:00 +19°C° 0 mm 2 m/S 678 mmHg 46%
    21:00 +18°C° 0 mm 2 m/S 678 mmHg 50%
    22:00 +17°C° 0 mm 2 m/S 678 mmHg 53%
    23:00 +17°C° 0 mm 2 m/S 678 mmHg 54%

    30 April, Dienstag

    Zeit Temperatur Niederschläge Wind Luftdruck Luftfeuchtigkeit
    00:00 +16°C° 0 mm 2 m/S 678 mmHg 55%
    01:00 +16°C° 0 mm 2 m/S 677 mmHg 56%
    02:00 +15°C° 0 mm 2 m/S 677 mmHg 57%
    03:00 +15°C° 0 mm 2 m/S 677 mmHg 57%
    04:00 +14°C° 0 mm 2 m/S 678 mmHg 57%
    05:00 +15°C° 0 mm 2 m/S 678 mmHg 53%
    06:00 +16°C° 0 mm 2 m/S 679 mmHg 49%
    07:00 +17°C° 0 mm 2 m/S 679 mmHg 46%
    08:00 +19°C° 0 mm 2 m/S 680 mmHg 39%
    09:00 +21°C° 0 mm 3 m/S 680 mmHg 33%
    10:00 +22°C° 0 mm 3 m/S 680 mmHg 27%
    11:00 +24°C° 0 mm 3 m/S 680 mmHg 24%
    12:00 +26°C° 0 mm 4 m/S 680 mmHg 21%
    13:00 +27°C° 0 mm 4 m/S 679 mmHg 17%
    14:00 +27°C° 0 mm 5 m/S 679 mmHg 18%
    15:00 +26°C° 0 mm 6 m/S 679 mmHg 19%
    16:00 +26°C° 0 mm 7 m/S 679 mmHg 20%
    17:00 +24°C° 0 mm 6 m/S 679 mmHg 23%
    18:00 +23°C° 0 mm 6 m/S 679 mmHg 27%
    19:00 +21°C° 0 mm 5 m/S 679 mmHg 31%
    20:00 +20°C° 0 mm 4 m/S 679 mmHg 32%
    21:00 +20°C° 0 mm 4 m/S 679 mmHg 34%
    22:00 +19°C° 0 mm 3 m/S 679 mmHg 35%
    23:00 +18°C° 0 mm 3 m/S 679 mmHg 35%
    Mehr zeigen